Location: Cucq
(50.4773°N, 1.6202°E)
Time: 08:06:00
(UTC+00:00)

Cosmos 1464 Rocket - Pass Details

Date: 07 August 2020
Orbit: 952 x 1001 km, 82.9° (Epoch: 26 September)

Event Time Altitude Azimuth Distance (km) Brightness Sun altitude
Exits shadow 00:08:52 42° 150° (SSE) 1,363 4.3 -23.1°
Maximum altitude 00:10:47 60° 93° (E) 1,112 4.2 -23.1°
Drops below altitude 10° 00:16:54 10° 16° (NNE) 2,722 7.4 -23.1°
Sets 00:19:25 0° 13° (NNE) 3,667 8.5 -23.0°
